Time,TemperatureF,DewpointF,PressureIn,WindDirection,WindDirectionDegrees,WindSpeedMPH,WindSpeedGustMPH,Humidity,HourlyPrecipIn,Conditions,Clouds,dailyrainin,SoftwareType,DateUTC
2016-09-26 00:05:00,39.0,29.0,30.28,NW,317,3.0,6.0,66,-99.99,,,-99.99,,2016-09-26 06:05:00,
2016-09-26 00:14:00,39.0,29.0,30.29,NW,311,3.0,6.0,67,-99.99,,,-99.99,,2016-09-26 06:14:00,
2016-09-26 00:24:00,38.0,28.0,30.29,NW,312,3.0,6.0,68,-99.99,,,-99.99,,2016-09-26 06:24:00,
2016-09-26 00:46:00,36.0,28.0,30.29,WNW,296,2.0,6.0,71,-99.99,,,-99.99,,2016-09-26 06:46:00,
2016-09-26 00:54:00,37.0,28.0,30.29,WNW,290,2.0,7.0,71,-99.99,,,-99.99,,2016-09-26 06:54:00,
2016-09-26 01:14:00,37.0,28.0,30.29,NW,311,2.0,5.0,70,-99.99,,,-99.99,,2016-09-26 07:14:00,
2016-09-26 01:27:00,37.0,28.0,30.29,NW,321,3.0,6.0,71,-99.99,,,-99.99,,2016-09-26 07:27:00,
2016-09-26 01:35:00,37.0,28.0,30.29,NW,321,3.0,6.0,71,-99.99,,,-99.99,,2016-09-26 07:35:00,
2016-09-26 01:44:00,38.0,29.0,30.29,NW,315,2.0,6.0,70,-99.99,,,-99.99,,2016-09-26 07:44:00,
2016-09-26 01:55:00,37.0,28.0,30.29,WNW,302,1.0,6.0,70,-99.99,,,-99.99,,2016-09-26 07:55:00,
2016-09-26 02:04:00,37.0,28.0,30.29,WNW,302,1.0,6.0,70,-99.99,,,-99.99,,2016-09-26 08:04:00,
2016-09-26 02:13:00,38.0,29.0,30.28,NW,310,2.0,7.0,71,-99.99,,,-99.99,,2016-09-26 08:13:00,
2016-09-26 02:24:00,37.0,28.0,30.28,WNW,293,3.0,6.0,70,-99.99,,,-99.99,,2016-09-26 08:24:00,
2016-09-26 02:34:00,37.0,28.0,30.28,WNW,293,3.0,6.0,70,-99.99,,,-99.99,,2016-09-26 08:34:00,
2016-09-26 02:53:00,37.0,29.0,30.28,NW,314,1.0,-999.0,72,-99.99,,,-99.99,,2016-09-26 08:53:00,
2016-09-26 03:03:00,37.0,29.0,30.28,NW,314,1.0,6.0,72,-99.99,,,-99.99,,2016-09-26 09:03:00,
2016-09-26 03:13:00,38.0,30.0,30.27,WNW,297,2.0,5.0,72,-99.99,,,-99.99,,2016-09-26 09:13:00,
2016-09-26 03:23:00,37.0,29.0,30.27,West,269,2.0,7.0,72,-99.99,,,-99.99,,2016-09-26 09:23:00,
2016-09-26 03:34:00,37.0,29.0,30.27,West,269,2.0,7.0,72,-99.99,,,-99.99,,2016-09-26 09:34:00,
2016-09-26 03:45:00,37.0,28.0,30.27,WNW,287,3.0,7.0,71,-99.99,,,-99.99,,2016-09-26 09:45:00,
2016-09-26 04:06:00,37.0,28.0,30.27,WNW,297,3.0,6.0,71,-99.99,,,-99.99,,2016-09-26 10:06:00,
2016-09-26 04:14:00,37.0,28.0,30.27,NW,314,3.0,8.0,71,-99.99,,,-99.99,,2016-09-26 10:14:00,
2016-09-26 04:24:00,37.0,28.0,30.26,WNW,293,5.0,9.0,71,-99.99,,,-99.99,,2016-09-26 10:24:00,
2016-09-26 04:37:00,37.0,28.0,30.27,WNW,290,2.0,6.0,70,-99.99,,,-99.99,,2016-09-26 10:37:00,
2016-09-26 04:57:00,37.0,27.0,30.27,WNW,297,2.0,6.0,68,-99.99,,,-99.99,,2016-09-26 10:57:00,
2016-09-26 05:06:00,37.0,27.0,30.27,WNW,297,2.0,6.0,68,-99.99,,,-99.99,,2016-09-26 11:06:00,
2016-09-26 05:14:00,38.0,27.0,30.27,NW,313,3.0,6.0,65,-99.99,,,-99.99,,2016-09-26 11:14:00,
2016-09-26 06:05:00,39.0,27.0,30.27,NW,316,2.0,6.0,61,-99.99,,,-99.99,,2016-09-26 12:05:00,
2016-09-26 06:15:00,39.0,27.0,30.27,NW,316,2.0,6.0,61,-99.99,,,-99.99,,2016-09-26 12:15:00,
2016-09-26 06:24:00,38.0,26.0,30.27,NW,312,2.0,8.0,61,-99.99,,,-99.99,,2016-09-26 12:24:00,
2016-09-26 06:35:00,38.0,25.0,30.27,NW,304,2.0,6.0,60,-99.99,,,-99.99,,2016-09-26 12:35:00,
2016-09-26 06:47:00,38.0,26.0,30.27,NW,305,4.0,7.0,61,-99.99,,,-99.99,,2016-09-26 12:47:00,
2016-09-26 06:56:00,38.0,25.0,30.27,NW,306,3.0,7.0,60,-99.99,,,-99.99,,2016-09-26 12:56:00,
2016-09-26 07:05:00,38.0,25.0,30.27,NW,306,3.0,7.0,60,-99.99,,,-99.99,,2016-09-26 13:05:00,
2016-09-26 07:15:00,38.0,25.0,30.27,NW,316,4.0,7.0,58,-99.99,,,-99.99,,2016-09-26 13:15:00,
2016-09-26 07:25:00,37.0,24.0,30.28,WNW,295,6.0,9.0,60,-99.99,,,-99.99,,2016-09-26 13:25:00,
2016-09-26 07:35:00,37.0,24.0,30.28,WNW,295,6.0,9.0,60,-99.99,,,-99.99,,2016-09-26 13:35:00,
2016-09-26 07:45:00,38.0,25.0,30.28,WNW,288,3.0,6.0,58,-99.99,,,-99.99,,2016-09-26 13:45:00,
2016-09-26 07:54:00,38.0,25.0,30.29,WNW,303,3.0,-999.0,59,-99.99,,,-99.99,,2016-09-26 13:54:00,
2016-09-26 08:04:00,38.0,25.0,30.29,WNW,303,3.0,7.0,59,-99.99,,,-99.99,,2016-09-26 14:04:00,
2016-09-26 08:13:00,38.0,25.0,30.29,WNW,303,3.0,7.0,59,-99.99,,,-99.99,,2016-09-26 14:13:00,
2016-09-26 08:33:00,38.0,25.0,30.29,NW,304,2.0,5.0,59,-99.99,,,-99.99,,2016-09-26 14:33:00,
2016-09-26 08:44:00,44.0,27.0,30.29,WNW,300,1.0,4.0,51,-99.99,,,-99.99,,2016-09-26 14:44:00,
2016-09-26 08:54:00,46.0,27.0,30.29,WNW,297,0.0,2.0,48,-99.99,,,-99.99,,2016-09-26 14:54:00,
2016-09-26 09:03:00,46.0,27.0,30.29,WNW,297,0.0,2.0,48,-99.99,,,-99.99,,2016-09-26 15:03:00,
2016-09-26 09:13:00,49.0,28.0,30.29,WNW,297,0.0,1.0,44,-99.99,,,-99.99,,2016-09-26 15:13:00,
2016-09-26 09:24:00,55.0,28.0,30.29,ESE,108,2.0,3.0,35,-99.99,,,-99.99,,2016-09-26 15:24:00,
2016-09-26 09:54:00,59.0,28.0,30.29,South,169,0.0,3.0,30,-99.99,,,-99.99,,2016-09-26 15:54:00,
2016-09-26 10:06:00,59.0,28.0,30.29,South,169,0.0,3.0,30,-99.99,,,-99.99,,2016-09-26 16:06:00,
2016-09-26 10:27:00,59.0,28.0,30.28,SSE,150,5.0,-999.0,30,-99.99,,,-99.99,,2016-09-26 16:27:00,
2016-09-26 11:17:00,60.0,28.0,30.26,SE,139,8.0,-999.0,30,-99.99,,,-99.99,,2016-09-26 17:17:00,
2016-09-26 11:45:00,62.0,29.0,30.24,ESE,113,4.0,13.0,29,-99.99,,,-99.99,,2016-09-26 17:45:00,
2016-09-26 12:05:00,61.0,29.0,30.24,NNE,22,5.0,14.0,30,-99.99,,,-99.99,,2016-09-26 18:05:00,
2016-09-26 12:15:00,62.0,30.0,30.23,SSE,158,3.0,9.0,30,-99.99,,,-99.99,,2016-09-26 18:15:00,
2016-09-26 12:24:00,61.0,30.0,30.22,SE,132,6.0,14.0,31,-99.99,,,-99.99,,2016-09-26 18:24:00,
2016-09-26 12:46:00,61.0,30.0,30.22,SE,132,5.0,-999.0,31,-99.99,,,-99.99,,2016-09-26 18:46:00,
2016-09-26 13:06:00,63.0,31.0,30.22,NE,47,2.0,7.0,30,-99.99,,,-99.99,,2016-09-26 19:06:00,
2016-09-26 13:14:00,62.0,30.0,30.21,SSE,148,5.0,12.0,30,-99.99,,,-99.99,,2016-09-26 19:14:00,
2016-09-26 13:24:00,61.0,29.0,30.21,ESE,120,6.0,13.0,30,-99.99,,,-99.99,,2016-09-26 19:24:00,
2016-09-26 13:37:00,61.0,29.0,30.20,SSE,154,6.0,13.0,30,-99.99,,,-99.99,,2016-09-26 19:37:00,
2016-09-26 13:45:00,61.0,29.0,30.20,SSE,154,6.0,13.0,30,-99.99,,,-99.99,,2016-09-26 19:45:00,
2016-09-26 14:04:00,61.0,29.0,30.19,SE,138,5.0,11.0,30,-99.99,,,-99.99,,2016-09-26 20:04:00,
2016-09-26 14:13:00,62.0,29.0,30.18,SSE,153,4.0,11.0,29,-99.99,,,-99.99,,2016-09-26 20:13:00,
2016-09-26 14:23:00,62.0,29.0,30.18,SE,142,7.0,13.0,29,-99.99,,,-99.99,,2016-09-26 20:23:00,
2016-09-26 14:34:00,62.0,29.0,30.18,SE,142,7.0,13.0,29,-99.99,,,-99.99,,2016-09-26 20:34:00,
2016-09-26 14:46:00,63.0,30.0,30.17,SE,141,7.0,11.0,29,-99.99,,,-99.99,,2016-09-26 20:46:00,
2016-09-26 14:54:00,63.0,30.0,30.17,SE,142,7.0,12.0,29,-99.99,,,-99.99,,2016-09-26 20:54:00,
2016-09-26 15:03:00,63.0,30.0,30.17,SE,142,7.0,12.0,29,-99.99,,,-99.99,,2016-09-26 21:03:00,